Location: Acts Church of Fort Worth
(32.6786°N, 97.2668°W)
Time: 21:24:59
(UTC+00:00)

Cosmos 1934 Rocket - Pass Details

Date: 18 January 2026
Orbit: 937 x 998 km, 83.0° (Epoch: 10 February)

Event Time Altitude Azimuth Distance (km) Brightness Sun altitude
Rises 01:15:35 0° 357° (N) 3,637 6.9 -18.3°
Reaches altitude 10° 01:18:05 10° 360° (N) 2,696 6.2 -18.8°
Maximum altitude 01:24:14 69° 83° (E) 1,035 3.9 -20.1°
Drops below altitude 10° 01:30:27 10° 166° (SSE) 2,723 6.3 -21.3°
Sets 01:32:59 0° 169° (S) 3,676 7.0 -21.9°
